Retour au catalogue

FIRESAT3

ActifScienceSSO
NORAD 69890·PAYLOAD·🇺🇸 United States

Lancé Jul 7, 2026 depuis Vandenberg Space Force Base

Loading…

Prochains Passages (prochaines 24 heures)

TLE

FraisSource: Space-Track

Époque: Sep 13, 2026, 16:20 UTC

1 69890U 26156X   26256.68113530  .00000886  00000-0  92442-4 0  9997
2 69890  97.7463 156.0243 0005177 298.7239  61.3460 14.92214603 10194

Suivez FIRESAT3 en temps réel avec AllMySat

Download on the App Store